This is the latest recevied weather packets stored in our database for station/object WA6OOO. If no packets are shown the sender has not sent any weather packets the latest 10 day(s).
| Time | Temp. | Humidity | Pressure | Rain* | Wind** | Luminosity | Snow |
|---|---|---|---|---|---|---|---|
| 1777287714 | 10.56° C | 82% | 1017.9 hPa | 0 mm | - | 0 W/m² | - |
| 1777287409 | 10.56° C | 82% | 1017.9 hPa | 0 mm | - | 0 W/m² | - |
| 1777287105 | 11.11° C | 80% | 1017.8 hPa | 0 mm | - | 0 W/m² | - |
| 1777286803 | 11.67° C | 78% | 1017.9 hPa | 0 mm | - | 0 W/m² | - |
| 1777286500 | 12.22° C | 74% | 1017.8 hPa | 0 mm | - | 0 W/m² | - |
| 1777286197 | 12.22° C | 74% | 1017.8 hPa | 0 mm | - | 0 W/m² | - |
| 1777285895 | 12.22° C | 74% | 1017.7 hPa | 0 mm | - | 0 W/m² | - |
| 1777285592 | 12.22° C | 75% | 1017.8 hPa | 0 mm | - | 0 W/m² | - |
| 1777285290 | 12.22° C | 76% | 1017.8 hPa | 0 mm | - | 0 W/m² | - |
| 1777284986 | 12.22° C | 76% | 1017.9 hPa | 0 mm | - | 0 W/m² | - |
| 1777284683 | 11.67° C | 77% | 1017.9 hPa | 0 mm | - | 0 W/m² | - |
| 1777284380 | 11.67° C | 78% | 1017.8 hPa | 0 mm | - | 0 W/m² | - |
| 1777284077 | 11.67° C | 78% | 1017.6 hPa | 0 mm | - | 0 W/m² | - |
| 1777283775 | 11.67° C | 79% | 1018 hPa | 0 mm | - | 0 W/m² | - |
| 1777283472 | 11.67° C | 80% | 1017.9 hPa | 0 mm | - | 0 W/m² | - |
| 1777283170 | 11.67° C | 81% | 1018 hPa | 0 mm | - | 0 W/m² | - |
| 1777282868 | 11.67° C | 81% | 1017.8 hPa | 0 mm | - | 0 W/m² | - |
| 1777282562 | 11.11° C | 81% | 1017.9 hPa | 0 mm | - | 0 W/m² | - |
| 1777282259 | 11.11° C | 82% | 1018.2 hPa | 0 mm | - | 0 W/m² | - |
| 1777281957 | 11.11° C | 83% | 1018 hPa | 0 mm | - | 0 W/m² | - |
| 1777281654 | 11.11° C | 83% | 1018.1 hPa | 0 mm | - | 0 W/m² | - |
| 1777281351 | 11.11° C | 83% | 1018.1 hPa | 0 mm | - | 0 W/m² | - |
| 1777281047 | 11.11° C | 84% | 1018.1 hPa | 0 mm | - | 0 W/m² | - |
| 1777280745 | 11.11° C | 86% | 1018.2 hPa | 0 mm | - | 0 W/m² | - |
| 1777280441 | 11.11° C | 87% | 1018.3 hPa | 0 mm | - | 0 W/m² | - |
* Rain latest hour (hover to see other rain measurements)
** Current wind speed in m/s (hover to see current wind gust speed)